TimeEST,TemperatureF,Dew PointF,Humidity,Sea Level PressureIn,VisibilityMPH,Wind Direction,Wind SpeedMPH,Gust SpeedMPH,PrecipitationIn,Events,Conditions,WindDirDegrees,DateUTC
12:53 AM,44.1,25.0,47,30.10,10.0,WSW,12.7,-,N/A,,Clear,250,2013-02-01 05:53:00
1:53 AM,43.0,25.0,49,30.10,10.0,West,10.4,-,N/A,,Clear,260,2013-02-01 06:53:00
2:53 AM,42.1,26.1,53,30.08,10.0,WSW,11.5,-,N/A,,Clear,240,2013-02-01 07:53:00
3:53 AM,43.0,25.0,49,30.08,10.0,SW,13.8,-,N/A,,Clear,230,2013-02-01 08:53:00
4:53 AM,42.1,25.0,51,30.07,10.0,WSW,12.7,20.7,N/A,,Clear,240,2013-02-01 09:53:00
5:53 AM,43.0,25.0,49,30.06,10.0,SW,12.7,-,N/A,,Clear,230,2013-02-01 10:53:00
6:53 AM,44.1,25.0,47,30.05,10.0,SW,16.1,21.9,N/A,,Clear,220,2013-02-01 11:53:00
7:53 AM,46.0,25.0,44,30.06,10.0,SW,16.1,25.3,N/A,,Clear,230,2013-02-01 12:53:00
8:53 AM,51.1,26.1,38,30.07,10.0,WSW,23.0,32.2,N/A,,Clear,250,2013-02-01 13:53:00
9:53 AM,52.0,28.0,40,30.09,10.0,West,24.2,35.7,N/A,,Clear,270,2013-02-01 14:53:00
10:53 AM,54.0,28.0,37,30.11,10.0,West,26.5,40.3,N/A,,Partly Cloudy,280,2013-02-01 15:53:00
11:53 AM,54.0,28.0,37,30.12,10.0,WNW,20.7,29.9,N/A,,Mostly Cloudy,290,2013-02-01 16:53:00
12:53 PM,52.0,23.0,32,30.16,10.0,WNW,21.9,31.1,N/A,,Clear,300,2013-02-01 17:53:00
1:53 PM,51.1,12.9,22,30.17,10.0,NW,21.9,29.9,N/A,,Clear,310,2013-02-01 18:53:00
2:53 PM,50.0,3.0,15,30.18,10.0,WNW,19.6,29.9,N/A,,Clear,300,2013-02-01 19:53:00
3:53 PM,48.2,6.8,19,30.22,10.0,WNW,18.4,-,N/A,,Clear,290,2013-02-01 20:53:00
4:53 PM,46.0,3.0,17,30.25,10.0,NW,13.8,24.2,N/A,,Clear,310,2013-02-01 21:53:00
5:53 PM,41.0,8.1,26,30.28,10.0,NNW,9.2,-,N/A,,Clear,340,2013-02-01 22:53:00
6:53 PM,37.9,10.0,32,30.31,10.0,North,4.6,-,N/A,,Clear,10,2013-02-01 23:53:00
7:53 PM,36.0,10.0,34,30.34,10.0,NNW,3.5,-,N/A,,Clear,340,2013-02-02 00:53:00
8:53 PM,33.1,14.0,46,30.36,10.0,Calm,Calm,-,N/A,,Clear,0,2013-02-02 01:53:00
9:53 PM,28.0,19.0,69,30.38,10.0,Calm,Calm,-,N/A,,Clear,0,2013-02-02 02:53:00
10:53 PM,28.0,16.0,61,30.39,10.0,Calm,Calm,-,N/A,,Clear,0,2013-02-02 03:53:00
11:53 PM,28.0,17.1,63,30.39,10.0,Calm,Calm,-,N/A,,Clear,0,2013-02-02 04:53:00